weather.gov     
National Weather Service

Terminal Aerodrome Forecast
NWS Homepage
This page is being discontinued on March 12, 2014.
The same data is available at this site. Please update your bookmarks.
Thank you, and we apologize for the inconvenience.
Please send an email to SR-SRH.Webmaster@noaa.gov with any concerns.


Current Version
Previous Version:    01  02  03  04  05  06  07  08  09  10  11  12  13  14  15  16  17  18  19  20  21  22  23  24  25  26  27  28  29  30  
   31  
[Printable]
370
FTUS43 KDVN 231700
TAFCID
TAF
KCID 231722Z 2318/2418 18009KT P6SM VCSH OVC012
     FM232000 20007KT P6SM OVC010
     FM240200 21003KT P6SM SCT010
     FM240600 20003KT 5SM BR SCT002
     FM240900 19003KT 1SM BR BKN002
     FM241030 18003KT 1/2SM FG OVC002
     FM241430 17005KT 1 1/2SM BR OVC004
     FM241600 17007KT 6SM BR SCT004=


U.S. Dept. of Commerce
NOAA National Weather Service
1325 East West Highway
Silver Spring, MD 20910
E-mail: w-nws.webmaster@noaa.gov
Page last modified: May 16, 2007
NATIONAL WEATHER SERVICE: for Safety, for Work, for Fun - FOR LIFE